EZY67PY EIDW-EGKK

Flight info

Callsign EZY67PY
Flight time 1h 4m
Altitude 33000
Route ENDEQ1E ENDEQ Q36 EPOXI L15 KEPAD L151 DISIT
Aircraft A319/M-SDE3FGHIRWY/LB1

Departure

Time 2026-04-30 12:43
Airport Dublin Airport (EIDW)

Arrival

Time 2026-04-30 13:47
Airport London Gatwick Airport (EGKK)
Time Latitude Longitude Altitude Speed Heading
2026-04-30 12:09 53.42651 -6.24686 217 ft 0 kts 143°
2026-04-30 12:25 53.42658 -6.24695 225 ft 2 kts 146°
2026-04-30 12:25 53.42674 -6.24706 225 ft 3 kts 189°
2026-04-30 12:25 53.42692 -6.24695 220 ft 3 kts 205°
2026-04-30 12:25 53.42702 -6.24687 226 ft 0 kts 206°
2026-04-30 12:30 53.42701 -6.24689 226 ft 0 kts 214°
2026-04-30 12:30 53.42701 -6.24690 227 ft 0 kts 219°
2026-04-30 12:31 53.42701 -6.24691 227 ft 0 kts 222°
2026-04-30 12:31 53.42701 -6.24694 227 ft 1 kts 239°
2026-04-30 12:31 53.42700 -6.24707 221 ft 0 kts 262°
2026-04-30 12:32 53.42702 -6.24733 226 ft 0 kts 277°
2026-04-30 12:32 53.42701 -6.24770 222 ft 6 kts 261°
2026-04-30 12:32 53.42681 -6.24836 221 ft 1 kts 234°
2026-04-30 12:32 53.42669 -6.24861 221 ft 5 kts 230°
2026-04-30 12:33 53.42632 -6.24887 220 ft 7 kts 180°
2026-04-30 12:33 53.42582 -6.24874 219 ft 8 kts 187°
2026-04-30 12:33 53.42546 -6.24955 217 ft 11 kts 268°
2026-04-30 12:33 53.42597 -6.25035 218 ft 11 kts 340°
2026-04-30 12:34 53.42659 -6.25076 221 ft 9 kts 336°
2026-04-30 12:34 53.42678 -6.25090 222 ft 0 kts 336°
2026-04-30 12:35 53.42689 -6.25098 222 ft 7 kts 336°
2026-04-30 12:35 53.42765 -6.25126 219 ft 12 kts
2026-04-30 12:35 53.42791 -6.25126 219 ft 0 kts 353°
2026-04-30 12:35 53.42793 -6.25135 219 ft 2 kts 304°
2026-04-30 12:36 53.42799 -6.25182 220 ft 7 kts 277°
2026-04-30 12:36 53.42788 -6.25266 221 ft 8 kts 235°
2026-04-30 12:36 53.42751 -6.25333 222 ft 8 kts 226°
2026-04-30 12:36 53.42708 -6.25404 222 ft 11 kts 225°
2026-04-30 12:37 53.42636 -6.25529 219 ft 18 kts 226°
2026-04-30 12:37 53.42533 -6.25705 216 ft 24 kts 225°
2026-04-30 12:37 53.42414 -6.25909 217 ft 20 kts 226°
2026-04-30 12:37 53.42338 -6.26036 220 ft 14 kts 224°
2026-04-30 12:38 53.42283 -6.26149 225 ft 11 kts 243°
2026-04-30 12:38 53.42267 -6.26266 226 ft 10 kts 265°
2026-04-30 12:38 53.42273 -6.26384 227 ft 10 kts 280°
2026-04-30 12:38 53.42279 -6.26494 229 ft 9 kts 274°
2026-04-30 12:39 53.42286 -6.26626 232 ft 15 kts 276°
2026-04-30 12:39 53.42299 -6.26849 230 ft 24 kts 275°
2026-04-30 12:39 53.42314 -6.27138 232 ft 24 kts 275°
2026-04-30 12:39 53.42330 -6.27423 231 ft 25 kts 276°
2026-04-30 12:40 53.42345 -6.27699 237 ft 23 kts 275°
2026-04-30 12:40 53.42359 -6.27949 242 ft 20 kts 276°
2026-04-30 12:40 53.42371 -6.28167 246 ft 18 kts 275°
2026-04-30 12:40 53.42381 -6.28362 249 ft 16 kts 275°
2026-04-30 12:41 53.42392 -6.28548 249 ft 17 kts 276°
2026-04-30 12:41 53.42403 -6.28749 249 ft 17 kts 275°
2026-04-30 12:41 53.42412 -6.28945 249 ft 17 kts 270°
2026-04-30 12:41 53.42332 -6.29072 249 ft 17 kts 183°
2026-04-30 12:42 53.42241 -6.29013 248 ft 13 kts 112°
2026-04-30 12:42 53.42234 -6.28853 248 ft 15 kts 96°
2026-04-30 12:42 53.42209 -6.28388 249 ft 79 kts 95°
2026-04-30 12:42 53.42139 -6.27056 238 ft 145 kts 94°
2026-04-30 12:43 53.42066 -6.25327 816 ft 150 kts 94°
2026-04-30 12:43 53.41998 -6.23582 1670 ft 150 kts 97°
2026-04-30 12:43 53.41959 -6.22365 2009 ft 166 kts 98°
2026-04-30 12:43 53.41820 -6.19578 2570 ft 198 kts 102°
2026-04-30 12:44 53.41658 -6.17136 3170 ft 223 kts 102°
2026-04-30 12:44 53.41533 -6.15327 3610 ft 238 kts 102°
2026-04-30 12:44 53.41359 -6.12658 4523 ft 247 kts 101°
2026-04-30 12:44 53.41186 -6.09793 5525 ft 253 kts 100°
2026-04-30 12:45 53.41013 -6.06822 6517 ft 258 kts 99°
2026-04-30 12:45 53.40924 -6.03774 7453 ft 267 kts 90°
2026-04-30 12:45 53.41126 -6.00648 8400 ft 272 kts 88°
2026-04-30 12:45 53.41349 -5.97474 8830 ft 275 kts 88°
2026-04-30 12:46 53.41577 -5.94288 8999 ft 274 kts 88°
2026-04-30 12:46 53.41804 -5.91109 9200 ft 276 kts 88°
2026-04-30 12:46 53.42025 -5.87893 10108 ft 278 kts 89°
2026-04-30 12:46 53.42248 -5.84583 10650 ft 298 kts 89°
2026-04-30 12:47 53.42487 -5.80990 11016 ft 320 kts 89°
2026-04-30 12:47 53.42737 -5.77279 11697 ft 328 kts 89°
2026-04-30 12:47 53.42999 -5.73448 12523 ft 332 kts 89°
2026-04-30 12:47 53.43263 -5.69575 13364 ft 336 kts 89°
2026-04-30 12:48 53.43528 -5.65668 14155 ft 339 kts 89°
2026-04-30 12:48 53.43791 -5.61708 14861 ft 343 kts 90°
2026-04-30 12:48 53.44053 -5.57702 15567 ft 347 kts 90°
2026-04-30 12:48 53.44320 -5.53659 16270 ft 351 kts 90°
2026-04-30 12:49 53.44537 -5.49561 16960 ft 352 kts 95°
2026-04-30 12:49 53.44478 -5.45443 17335 ft 362 kts 98°
2026-04-30 12:49 53.44372 -5.41184 17929 ft 368 kts 98°
2026-04-30 12:49 53.44258 -5.36868 18565 ft 373 kts 98°
2026-04-30 12:50 53.44143 -5.32506 19148 ft 376 kts 98°
2026-04-30 12:50 53.44028 -5.28102 19759 ft 379 kts 98°
2026-04-30 12:50 53.43912 -5.23658 20361 ft 382 kts 98°
2026-04-30 12:50 53.43794 -5.19195 20937 ft 385 kts 98°
2026-04-30 12:51 53.43671 -5.14688 21505 ft 388 kts 98°
2026-04-30 12:51 53.43536 -5.10149 22058 ft 391 kts 99°
2026-04-30 12:51 53.43395 -5.05626 22593 ft 394 kts 99°
2026-04-30 12:51 53.43250 -5.01022 23116 ft 397 kts 99°
2026-04-30 12:52 53.43101 -4.96379 23629 ft 400 kts 99°
2026-04-30 12:52 53.42944 -4.91702 24069 ft 403 kts 99°
2026-04-30 12:52 53.42786 -4.86989 24474 ft 406 kts 99°
2026-04-30 12:52 53.42627 -4.82235 24870 ft 409 kts 98°
2026-04-30 12:53 53.42470 -4.77460 25270 ft 412 kts 98°
2026-04-30 12:53 53.42313 -4.72697 25665 ft 415 kts 98°
2026-04-30 12:53 53.42148 -4.67844 26064 ft 418 kts 98°
2026-04-30 12:53 53.41979 -4.62958 26458 ft 421 kts 98°
2026-04-30 12:54 53.41808 -4.58045 26851 ft 423 kts 98°
2026-04-30 12:54 53.41632 -4.53104 27244 ft 426 kts 98°
2026-04-30 12:54 53.41451 -4.48127 27629 ft 429 kts 98°
2026-04-30 12:54 53.41270 -4.43121 28016 ft 431 kts 98°
2026-04-30 12:55 53.41090 -4.38080 28397 ft 434 kts 98°
2026-04-30 12:55 53.40910 -4.33015 28773 ft 436 kts 98°
2026-04-30 12:55 53.40726 -4.28002 29143 ft 438 kts 98°
2026-04-30 12:55 53.40531 -4.22897 29500 ft 440 kts 98°
2026-04-30 12:56 53.40330 -4.17764 29858 ft 442 kts 99°
2026-04-30 12:56 53.40129 -4.12613 30271 ft 442 kts 98°
2026-04-30 12:56 53.39931 -4.07480 30721 ft 440 kts 99°
2026-04-30 12:56 53.39729 -4.02358 31144 ft 439 kts 99°
2026-04-30 12:57 53.39526 -3.97253 31573 ft 438 kts 99°
2026-04-30 12:57 53.39323 -3.92165 31989 ft 437 kts 99°
2026-04-30 12:57 53.39118 -3.87087 32413 ft 436 kts 99°
2026-04-30 12:57 53.38908 -3.82016 32844 ft 435 kts 99°
2026-04-30 12:58 53.38694 -3.76950 33125 ft 435 kts 99°
2026-04-30 12:58 53.38479 -3.71904 33178 ft 433 kts 99°
2026-04-30 12:58 53.37487 -3.62112 33179 ft 421 kts 113°
2026-04-30 12:59 53.35241 -3.53115 33185 ft 418 kts 117°
2026-04-30 12:59 53.32651 -3.44552 33188 ft 411 kts 128°
2026-04-30 13:00 53.28986 -3.37287 33188 ft 408 kts 134°
2026-04-30 13:00 53.25215 -3.30160 33191 ft 408 kts 134°
2026-04-30 13:01 53.21471 -3.23098 33193 ft 408 kts 134°
2026-04-30 13:01 53.17706 -3.16019 33190 ft 408 kts 134°
2026-04-30 13:02 53.13936 -3.08929 33187 ft 407 kts 134°
2026-04-30 13:02 53.10164 -3.01861 33185 ft 408 kts 134°
2026-04-30 13:03 53.06413 -2.94863 33184 ft 408 kts 134°
2026-04-30 13:03 53.02630 -2.87813 33187 ft 408 kts 134°
2026-04-30 13:04 52.98846 -2.80790 33195 ft 407 kts 134°
2026-04-30 13:04 52.95056 -2.73781 33178 ft 408 kts 134°
2026-04-30 13:05 52.91289 -2.66826 33179 ft 408 kts 134°
2026-04-30 13:06 52.85584 -2.56332 33173 ft 409 kts 134°
2026-04-30 13:06 52.81748 -2.49361 33172 ft 408 kts 137°
2026-04-30 13:07 52.77257 -2.43766 33175 ft 407 kts 147°
2026-04-30 13:07 52.72529 -2.38576 33196 ft 408 kts 147°
2026-04-30 13:08 52.67808 -2.33378 33199 ft 408 kts 147°
2026-04-30 13:08 52.63106 -2.28202 33195 ft 409 kts 147°
2026-04-30 13:09 52.58372 -2.23013 33193 ft 409 kts 147°
2026-04-30 13:09 52.53612 -2.17826 33191 ft 410 kts 147°
2026-04-30 13:10 52.48862 -2.12657 33190 ft 410 kts 147°
2026-04-30 13:10 52.44133 -2.07511 32841 ft 411 kts 147°
2026-04-30 13:10 52.41746 -2.04920 32509 ft 411 kts 147°
2026-04-30 13:11 52.39351 -2.02324 31445 ft 416 kts 147°
2026-04-30 13:11 52.36919 -1.99691 30345 ft 421 kts 147°
2026-04-30 13:11 52.34458 -1.97032 29088 ft 425 kts 147°
2026-04-30 13:11 52.31978 -1.94357 27856 ft 427 kts 147°
2026-04-30 13:12 52.29506 -1.91697 26677 ft 423 kts 147°
2026-04-30 13:12 52.27090 -1.89102 25604 ft 419 kts 147°
2026-04-30 13:12 52.24680 -1.86520 24788 ft 409 kts 147°
2026-04-30 13:13 52.20023 -1.81531 23172 ft 394 kts 147°
2026-04-30 13:13 52.17742 -1.79091 22470 ft 389 kts 147°
2026-04-30 13:13 52.13251 -1.74296 21103 ft 383 kts 147°
2026-04-30 13:14 52.11029 -1.71931 20443 ft 380 kts 147°
2026-04-30 13:14 52.08817 -1.69576 19938 ft 383 kts 147°
2026-04-30 13:14 52.04287 -1.64760 19331 ft 389 kts 147°
2026-04-30 13:15 52.02049 -1.62384 18993 ft 388 kts 147°
2026-04-30 13:15 51.97535 -1.57598 18263 ft 386 kts 147°
2026-04-30 13:15 51.95288 -1.55220 17924 ft 384 kts 147°
2026-04-30 13:16 51.93050 -1.52860 17595 ft 383 kts 147°
2026-04-30 13:16 51.90824 -1.50512 17261 ft 381 kts 147°
2026-04-30 13:16 51.88602 -1.48169 16932 ft 380 kts 147°
2026-04-30 13:17 51.84215 -1.43543 16281 ft 377 kts 147°
2026-04-30 13:17 51.82016 -1.41238 15951 ft 376 kts 147°
2026-04-30 13:17 51.78377 -1.37431 15397 ft 373 kts 147°
2026-04-30 13:18 51.75465 -1.34393 15029 ft 372 kts 147°
2026-04-30 13:18 51.71154 -1.29897 14571 ft 370 kts 146°
2026-04-30 13:18 51.68990 -1.27643 14315 ft 369 kts 146°
2026-04-30 13:19 51.66830 -1.25394 14084 ft 369 kts 146°
2026-04-30 13:19 51.64673 -1.23153 13837 ft 368 kts 146°
2026-04-30 13:19 51.62524 -1.20920 13615 ft 367 kts 146°
2026-04-30 13:19 51.60379 -1.18695 13374 ft 365 kts 146°
2026-04-30 13:20 51.58270 -1.16509 13149 ft 364 kts 147°
2026-04-30 13:20 51.56144 -1.14307 12921 ft 363 kts 147°
2026-04-30 13:20 51.54023 -1.12113 12696 ft 362 kts 147°
2026-04-30 13:20 51.51904 -1.09926 12469 ft 361 kts 147°
2026-04-30 13:21 51.49796 -1.07754 12232 ft 359 kts 147°
2026-04-30 13:21 51.47697 -1.05591 12012 ft 358 kts 147°
2026-04-30 13:21 51.45605 -1.03436 11787 ft 357 kts 147°
2026-04-30 13:22 51.41463 -0.99175 11337 ft 353 kts 147°
2026-04-30 13:22 51.39441 -0.97098 11175 ft 336 kts 147°
2026-04-30 13:22 51.35683 -0.93249 10929 ft 305 kts 147°
2026-04-30 13:23 51.33931 -0.91460 10814 ft 292 kts 147°
2026-04-30 13:23 51.30663 -0.88119 10531 ft 271 kts 147°
2026-04-30 13:24 51.27496 -0.84886 10318 ft 269 kts 147°
2026-04-30 13:24 51.24348 -0.81681 10040 ft 268 kts 147°
2026-04-30 13:25 51.21199 -0.78476 9712 ft 267 kts 147°
2026-04-30 13:25 51.18083 -0.75320 9406 ft 266 kts 147°
2026-04-30 13:26 51.13410 -0.70598 8940 ft 264 kts 147°
2026-04-30 13:26 51.10334 -0.67494 8638 ft 263 kts 147°
2026-04-30 13:27 51.07248 -0.64382 8327 ft 262 kts 147°
2026-04-30 13:28 51.04470 -0.59568 7987 ft 263 kts 118°
2026-04-30 13:28 51.02871 -0.54406 7679 ft 261 kts 118°
2026-04-30 13:28 51.02062 -0.51828 7517 ft 261 kts 119°
2026-04-30 13:29 51.00437 -0.46678 7221 ft 260 kts 118°
2026-04-30 13:29 50.98821 -0.41547 6922 ft 258 kts 118°
2026-04-30 13:30 50.96432 -0.33979 6471 ft 255 kts 119°
2026-04-30 13:31 50.94845 -0.28960 6167 ft 254 kts 118°
2026-04-30 13:31 50.92635 -0.21971 5719 ft 221 kts 118°
2026-04-30 13:32 50.91274 -0.17694 5316 ft 216 kts 119°
2026-04-30 13:32 50.89925 -0.13461 5106 ft 214 kts 118°
2026-04-30 13:33 50.88587 -0.09254 4920 ft 213 kts 116°
2026-04-30 13:33 50.88270 -0.04620 4809 ft 221 kts 82°
2026-04-30 13:34 50.88847 -0.02331 4749 ft 228 kts 63°
2026-04-30 13:34 50.93044 0.01249 4569 ft 252 kts
2026-04-30 13:35 50.94760 0.00621 4498 ft 257 kts 337°
2026-04-30 13:35 50.97190 -0.03363 4386 ft 257 kts 288°
2026-04-30 13:36 50.97746 -0.08890 4250 ft 255 kts 271°
2026-04-30 13:36 50.97946 -0.11686 4163 ft 256 kts 273°
2026-04-30 13:36 50.98348 -0.17282 3998 ft 252 kts 273°
2026-04-30 13:37 50.98491 -0.19077 3973 ft 243 kts 277°
2026-04-30 13:37 50.99401 -0.24738 3994 ft 214 kts 282°
2026-04-30 13:38 51.00013 -0.28553 4008 ft 214 kts 281°
2026-04-30 13:38 51.00376 -0.30852 3996 ft 214 kts 281°
2026-04-30 13:38 51.01103 -0.35435 3996 ft 213 kts 281°
2026-04-30 13:39 51.01829 -0.40000 4006 ft 214 kts 281°
2026-04-30 13:39 51.02558 -0.44558 3658 ft 213 kts 281°
2026-04-30 13:40 51.02915 -0.46800 3493 ft 212 kts 280°
2026-04-30 13:40 51.03276 -0.49077 3333 ft 212 kts 281°
2026-04-30 13:40 51.03642 -0.51356 3172 ft 214 kts 282°
2026-04-30 13:40 51.04311 -0.53432 3054 ft 214 kts 319°
2026-04-30 13:41 51.05592 -0.54403 2969 ft 197 kts
2026-04-30 13:41 51.06918 -0.54284 2991 ft 188 kts 12°
2026-04-30 13:41 51.08219 -0.54104 2993 ft 187 kts 12°
2026-04-30 13:41 51.09397 -0.53449 2981 ft 173 kts 44°
2026-04-30 13:42 51.10175 -0.52068 3006 ft 165 kts 68°
2026-04-30 13:42 51.10486 -0.50382 3017 ft 160 kts 85°
2026-04-30 13:42 51.10934 -0.46913 3005 ft 159 kts 83°
2026-04-30 13:43 51.11171 -0.45180 2995 ft 160 kts 83°
2026-04-30 13:43 51.11412 -0.43445 3009 ft 162 kts 82°
2026-04-30 13:43 51.11656 -0.41688 2846 ft 168 kts 84°
2026-04-30 13:43 51.11914 -0.39857 2652 ft 171 kts 82°
2026-04-30 13:44 51.12173 -0.38004 2439 ft 173 kts 81°
2026-04-30 13:44 51.12433 -0.36149 2205 ft 171 kts 81°
2026-04-30 13:44 51.12687 -0.34338 1966 ft 162 kts 82°
2026-04-30 13:44 51.12920 -0.32667 1774 ft 151 kts 82°
2026-04-30 13:45 51.13330 -0.29741 1410 ft 125 kts 79°
2026-04-30 13:45 51.13513 -0.28422 1240 ft 120 kts 79°
2026-04-30 13:45 51.13684 -0.27132 1053 ft 119 kts 79°
2026-04-30 13:46 51.13882 -0.25858 847 ft 120 kts 80°
2026-04-30 13:46 51.14053 -0.24559 754 ft 120 kts 79°
2026-04-30 13:46 51.14232 -0.23291 576 ft 117 kts 80°
2026-04-30 13:46 51.14406 -0.21996 406 ft 120 kts 78°
2026-04-30 13:47 51.14586 -0.20699 228 ft 119 kts 78°
2026-04-30 13:47 51.14740 -0.19592 209 ft 86 kts 79°
2026-04-30 13:47 51.14829 -0.18933 213 ft 36 kts 77°
2026-04-30 13:47 51.14910 -0.18567 214 ft 36 kts 54°
2026-04-30 13:48 51.15055 -0.18292 212 ft 23 kts 51°
2026-04-30 13:48 51.15072 -0.18257 210 ft 0 kts 51°
2026-04-30 13:49 51.15073 -0.18255 210 ft 1 kts 51°
2026-04-30 13:50 51.15082 -0.18238 208 ft 3 kts 52°
2026-04-30 13:50 51.15141 -0.18193 205 ft 9 kts 358°
2026-04-30 13:50 51.15206 -0.18218 205 ft 10 kts 347°
2026-04-30 13:51 51.15280 -0.18243 205 ft 12 kts 348°
2026-04-30 13:51 51.15363 -0.18271 205 ft 13 kts 348°
2026-04-30 13:51 51.15454 -0.18302 211 ft 14 kts 348°
2026-04-30 13:51 51.15553 -0.18335 205 ft 15 kts 348°
2026-04-30 13:52 51.15650 -0.18327 213 ft 12 kts 52°
2026-04-30 13:52 51.15667 -0.18195 208 ft 13 kts 77°
2026-04-30 13:52 51.15687 -0.18055 205 ft 13 kts 78°
2026-04-30 13:52 51.15697 -0.17980 208 ft 4 kts 78°
2026-04-30 13:53 51.15701 -0.17947 212 ft 3 kts 77°
2026-04-30 13:53 51.15715 -0.17879 208 ft 5 kts 58°
2026-04-30 13:53 51.15738 -0.17873 205 ft 2 kts 354°
2026-04-30 13:53 51.15750 -0.17876 205 ft 1 kts 348°
2026-04-30 13:54 51.15753 -0.17877 205 ft 0 kts 347°
2026-04-30 13:54 51.15764 -0.17882 205 ft 5 kts 346°
2026-04-30 13:54 51.15773 -0.17886 205 ft 0 kts 345°
2026-04-30 13:54 51.15783 -0.17889 212 ft 0 kts 346°